Regional Weather Roundup
Issued by NWS Bismarck, ND

Home | Current Version | Previous Version | Text Only | Print | Product List | Glossary On
Versions: 1 2 3 4 5 6 7 8 9 10 11 12 13 14 15 16 17 18 19 20 21 22 23 24 25 26 27 28 29 30 31 32 33 34 35 36 37 38 39 40 41 42 43 44 45 46 47 48 49 50
000
ASUS43 KBIS 270610
RWRBIS

NWR BROADCAST TEXT
NATIONAL WEATHER SERVICE BISMARCK ND
100 AM CDT MON MAR 27 2017

NOTE: "FAIR" INDICATES FEW OR NO CLOUDS BELOW 12,000 FEET WITH NO
SIGNIFICANT WEATHER AND/OR OBSTRUCTIONS TO VISIBILITY.


CITY           SKY/WX    TMP DP  RH WIND       PRES   REMARKS
WILLISTON      FAIR      35  28  75 NW3       29.89S
MINOT          MOCLDY    42  35  76 SE3       29.87F
MINOT AFB      FAIR      37  35  90 N6        29.87F
BISMARCK       FAIR      37  33  85 E3        29.93S
DICKINSON      FAIR      38  31  76 S6        29.86F
GARRISON         N/A     42  35  76 CALM      29.88F
HETTINGER ARPT FAIR      38  34  85 CALM      29.91F
JAMESTOWN      FAIR      36  35  96 SW5       29.93R
HAZEN          MOCLDY    39  34  81 CALM      29.92R
LINTON           N/A     37  37 100 E6        29.95S
MANDAN         FAIR      39  34  81 S7        29.92S
STANLEY        FAIR      36  36 100 CALM      29.90F
TIOGA          FAIR      36  36 100 W3        29.90S
WATFORD CITY   FAIR      34  30  86 CALM      29.88F
$$

CITY           SKY/WX    TMP DP  RH WIND       PRES   REMARKS
GRAND FORKS    CLOUDY    40  39  97 CALM      29.96R
GRAND FORKS AF CLOUDY    33  33 100 CALM      29.96R
DEVILS LAKE    FAIR      32  31  96 SE5       29.94R FOG
FARGO          FAIR      34  33  96 CALM      29.95R
CAVALIER       FOG       28  28 100 CALM      29.95S VSB<1/4
GRAFTON        FOG       36  36 100 CALM      29.97F VSB<1/4
GWINNER        MOCLDY    37  36  93 MISG      29.95R
LANGDON        FAIR      30  30 100 SE3       29.93R
ROLLA          CLOUDY    36  36 100 CALM      29.94S
$$

CITY           SKY/WX    TMP DP  RH WIND       PRES   REMARKS
ABERDEEN       CLOUDY    40  35  83 W5        29.97R
MOBRIDGE       CLOUDY    43  36  76 E5        29.91S
BUFFALO          N/A     40  36  86 S5        29.84F
RAPID CITY     FAIR      33  31  92 S3        29.94S FOG
GLASGOW        FAIR      38  24  57 NE8       29.86S
SIDNEY         FAIR      36  26  67 NW5       29.89S
WOLF POINT     MOCLDY    36  30  79 NE3       29.88S
GLENDIVE       FAIR      41  25  53 NE6       29.88F
MILES CITY     FAIR      43  31  62 NE8       29.85F
BAKER          FAIR      40  33  76 S3        29.89R
$$

CITY           SKY/WX    TMP DP  RH WIND       PRES   REMARKS
BILLINGS       CLOUDY    50  31  48 SE6       29.81F
GREAT FALLS    CLOUDY    44  16  32 E7        29.79F
REGINA         FOG       30  30 100 N9        29.88S VSB 3/4
ESTEVAN        CLEAR     32  32 100 E7        29.88F
$$





USA.gov is the U.S. government's official web portal to all federal, state and local government web resources and services.